Startseite
Über Mich
AHP4
Galerie
Sehschlangen
Tourenbuch
Bookmarks
Elektronik
Bewertung
Geschichten
[Tagesmessung] [Jahreswerte] [Information]

Messwerte vom 29.03.2022

Die letzten Messwerte von 23:58:47 Uhr:
KategorieMesswert
Temperatur [°C]2
Luftdruck [mBar]992
Sonneneinstrahlung0
Wind [km/h]1 aus Nord
Niederschlag [l/m²]0
rel.Luftfeucht.87.3%
CO2 [ppm]557

Diagramme
Messwerte vom 29.03.2022
Tagesaggregation
KategorieMinimumMaximumSchnittSumme
Temperatur [°C]1167.5875
Luftdruck [mBar]9911001995.9229
Sonneneinstrahlung246111.7583
Wind [km/h]18
rF [%]43.796.676.23
Niederschlag [l/m²]0
CO2 [ppm]396733611.3
Einordnung alsVegetationstag

Messungen an benachbarten Tagen: Zur Jahresaggregation 2022
Tabelle aller Messwerte
UhrzeitTemperatur [°C]Luftdruck [mBar]SonneWind [km/h]RichtungRegen [l/m²]rF [%]CO2 [ppm]
00:01:46 3 1001 0 1 SW 0 93.7 636
00:04:49 4 1000 0 1 SO 0 93.9 630
00:07:47 4 1001 0 0 SW 0 94.1 633
00:10:45 4 1001 0 1 S 0 94.1 637
00:13:45 4 1001 0 0 SW 0 94.1 644
00:16:45 4 1000 0 1 S 0 94.1 638
00:19:49 4 1000 0 0 S 0 94 636
00:22:48 4 1000 0 0 NW 0 94 632
00:25:48 4 1000 0 0 W 0 94.1 631
00:28:46 4 1000 0 1 SW 0 94.1 631
00:31:47 4 1000 0 0 NO 0 94 633
00:34:46 4 1001 0 1 S 0 94 631
00:37:48 4 1000 0 3 SW 0 93.9 627
00:40:46 4 1000 0 1 W 0 93.9 627
00:43:47 4 999 0 0 SW 0 93.8 624
00:46:47 4 1000 0 3 W 0 93.8 627
00:49:46 4 1000 0 0 O 0 93.9 632
00:52:47 4 1000 0 0 NO 0 94.2 635
00:55:46 4 1000 0 0 W 0 94.4 635
00:58:49 4 1000 0 1 SW 0 94.4 618
01:01:47 4 1000 0 1 S 0 94.5 609
01:04:47 4 1000 0 2 NW 0 94.6 614
01:07:48 4 1000 0 0 SW 0 94.5 622
01:10:47 4 999 0 0 SW 0 94.6 619
01:13:46 4 1000 0 0 S 0 94.6 617
01:16:46 4 999 0 0 SW 0 94.8 611
01:19:46 4 999 0 1 SW 0 94.6 624
01:22:47 3 999 0 0 SW 0 94.5 631
01:25:47 3 1000 0 0 S 0 94.6 651
01:28:48 3 999 0 2 SW 0 94.8 645
01:31:46 3 1000 0 0 S 0 95.3 644
01:34:47 3 1000 0 0 SW 0 95.6 641
01:37:47 3 999 0 0 SW 0 96 645
01:40:46 3 1000 0 2 SW 0 96.1 644
01:43:45 3 1000 0 0 SW 0 96.5 636
01:46:48 3 1000 0 2 SW 0 96.4 630
01:49:47 4 999 0 0 SW 0 96.2 632
01:52:45 4 999 0 0 S 0 96.1 624
01:55:46 4 999 0 2 W 0 96.1 624
01:58:45 4 999 0 2 W 0 96 623
02:01:46 4 999 0 1 SW 0 95.8 632
02:04:47 4 999 0 1 S 0 95.8 639
02:07:47 4 999 0 0 SW 0 95.8 638
02:10:47 4 999 0 1 W 0 95.8 632
02:13:48 4 999 0 3 W 0 96.1 630
02:16:46 4 999 0 2 W 0 96.6 632
02:19:47 4 999 0 1 W 0 96.5 630
02:22:47 4 998 0 1 S 0 96.5 627
02:25:47 4 999 0 1 SW 0 96.5 624
02:28:47 4 999 0 2 W 0 96.4 624
02:31:49 4 999 0 9 W 0 96.5 624
02:34:47 4 998 0 4 W 0 96.5 623
02:37:46 4 999 0 3 NW 0 96.5 621
02:40:46 5 998 0 2 SW 0 96.6 617
02:43:47 5 998 0 0 W 0 96.4 612
02:46:47 5 998 0 1 W 0 96 615
02:49:47 5 999 0 6 SW 0 95.8 618
02:52:46 5 999 0 9 W 0 95.5 616
02:55:48 5 998 0 3 W 0 95.2 609
02:58:46 5 999 0 1 W 0 95 609
03:01:47 5 998 0 7 NW 0 95.1 606
03:04:47 5 999 0 6 W 0 94.9 606
03:07:47 5 999 0 6 W 0 94.8 597
03:10:46 5 998 0 5 W 0 94.7 600
03:13:47 5 998 0 3 SO 0 94.6 592
03:16:47 5 998 0 13 W 0 94.4 600
03:19:46 5 999 0 4 NW 0 94.4 603
03:22:48 5 999 0 2 SW 0 94.6 603
03:25:46 5 998 0 4 W 0 94.6 608
03:28:44 5 999 0 5 N 0 94.5 612
03:31:48 5 999 0 8 NW 0 94.3 612
03:34:48 5 998 0 4 W 0 94.3 602
03:37:48 5 998 0 8 NW 0 94.4 600
03:40:45 5 998 0 7 0 94.5 597
03:43:47 5 998 0 6 SW 0 94.4 600
03:46:48 5 998 0 3 NW 0 94.3 602
03:49:46 5 998 0 4 W 0 94.3 606
03:52:47 5 999 0 7 NW 0 94.3 606
03:55:44 5 998 0 9 W 0 94.3 597
03:58:45 5 999 0 9 W 0 94.3 598
04:01:47 5 998 0 6 NW 0 94.3 589
04:04:47 5 998 0 5 NW 0 94.2 585
04:07:44 5 999 0 2 N 0 94.3 576
04:10:49 5 998 0 5 NW 0 94.4 584
04:13:47 5 998 0 5 O 0 94.3 575
04:16:45 5 998 0 0 NO 0 94.3 588
04:19:46 5 998 0 6 W 0 94.3 601
04:22:48 5 998 0 1 SW 0 94.2 612
04:25:45 5 998 0 5 W 0 94.3 611
04:28:46 5 998 0 9 W 0 94.4 610
04:31:45 5 998 0 8 W 0 94.3 609
04:34:49 5 998 0 8 NW 0 94.2 602
04:37:45 5 998 0 9 W 0 94.2 600
04:40:48 5 998 0 15 W 0 94.1 596
04:43:47 5 998 0 10 W 0 93.9 592
04:46:47 5 998 0 8 NW 0 93.7 596
04:49:45 5 998 0 8 W 0 93.4 591
04:52:47 5 998 0 12 W 0 93.3 586
04:55:43 5 998 0 3 N 0 93.3 591
04:58:47 5 999 0 4 SW 0 93.4 594
05:01:48 5 998 0 5 SW 0 93.3 592
05:04:47 5 998 0 8 W 0 93.3 586
05:07:46 5 998 0 5 SW 0 93.3 582
05:10:49 5 998 0 2 SW 0 93.1 592
05:13:47 5 998 0 6 NW 0 93 592
05:16:47 5 998 0 4 SW 0 92.8 597
05:19:47 5 998 0 4 S 0 92.7 597
05:22:44 5 998 0 6 W 0 92.7 594
05:25:47 5 998 0 2 SW 0 92.7 600
05:28:47 5 998 0 2 SW 0 92.4 601
05:31:47 5 998 0 1 W 0 92.4 592
05:34:48 5 998 0 4 S 0 92.5 592
05:37:46 5 998 0 3 SW 0 92.5 586
05:40:51 5 998 0 3 O 0 92.5 589
05:43:46 5 998 0 2 N 0 92.6 594
05:46:48 5 998 0 2 NW 0 92.5 594
05:49:46 5 998 0 2 O 0 92.5 589
05:52:47 5 998 0 3 SW 0 92.6 595
05:55:46 5 998 0 5 W 0 92.6 598
05:58:47 5 998 0 2 SO 0 92.6 609
06:01:47 5 998 0 1 SW 0 92.5 607
06:04:47 5 998 0 5 S 0 92.6 616
06:07:48 5 998 0 2 S 0 92.6 606
06:10:47 5 998 0 5 W 0 92.6 606
06:13:49 5 998 0 2 S 0 92.5 592
06:16:46 5 998 0 3 NO 0 92.5 592
06:19:48 5 998 0 9 SW 0 92.5 589
06:22:45 5 998 0 5 W 0 92.4 603
06:25:46 5 998 0 1 W 0 92.4 606
06:28:48 5 998 0 2 SW 0 92.3 604
06:31:47 5 997 0 2 SW 0 92.1 609
06:34:48 5 998 0 2 SW 0 92.1 611
06:37:46 5 998 3 0 SW 0 92 618
06:40:47 5 998 5 1 SW 0 91.9 620
06:43:46 5 998 7 3 W 0 91.7 620
06:46:44 5 998 11 9 W 0 91.4 615
06:49:45 5 998 17 4 W 0 91.1 614
06:52:46 5 998 21 6 W 0 91.1 607
06:55:47 5 998 27 2 SO 0 91 611
06:58:48 5 998 34 4 NW 0 90.9 615
07:01:51 5 998 44 1 SW 0 90.7 623
07:04:46 5 998 48 1 S 0 90.7 597
07:07:47 5 998 50 0 SW 0 90.7 589
07:10:49 5 998 60 1 SW 0 90.8 592
07:13:48 5 998 72 0 SW 0 90.9 597
07:16:45 5 998 79 2 SO 0 91.1 592
07:19:45 5 998 83 1 S 0 91.4 592
07:22:47 5 998 86 3 N 0 91.3 582
07:25:45 5 998 93 3 S 0 91.1 594
07:28:48 5 998 100 3 W 0 90.8 625
07:31:49 5 998 109 3 SW 0 90.8 651
07:34:46 5 998 110 3 W 0 90.8 655
07:37:47 5 998 114 3 SW 0 90.9 652
07:40:49 5 997 115 1 S 0 90.9 648
07:43:47 5 998 122 1 S 0 90.9 649
07:46:45 5 997 133 3 W 0 91 645
07:49:48 5 998 129 0 O 0 91 651
07:52:47 5 998 133 0 SW 0 91.1 650
07:55:46 5 998 133 6 W 0 91.1 651
07:58:49 5 998 139 1 SW 0 91.1 642
08:01:46 5 998 142 4 W 0 91.1 644
08:04:48 5 998 149 5 W 0 91 644
08:07:48 5 997 155 1 SW 0 90.8 645
08:10:47 5 997 149 2 W 0 90.8 641
08:13:46 6 997 154 0 S 0 90.7 651
08:16:51 6 998 156 5 W 0 90.5 647
08:19:48 6 997 158 4 W 0 90.3 645
08:22:48 6 998 160 4 SW 0 90.2 648
08:25:47 6 998 159 1 W 0 90.1 650
08:28:50 6 998 162 2 NW 0 90 656
08:31:50 6 997 167 5 NW 0 89.8 658
08:34:47 6 998 169 3 W 0 89.7 653
08:37:48 6 998 172 7 W 0 89.5 656
08:40:48 6 998 174 2 W 0 89.2 649
08:43:50 6 998 177 3 SW 0 88.7 663
08:46:49 6 998 182 5 N 0 88.4 659
08:49:50 6 998 178 4 NW 0 88.1 657
08:52:50 6 998 177 5 NW 0 87.8 655
08:55:47 6 998 182 2 W 0 87.8 641
08:58:48 6 998 196 5 NW 0 87.8 640
09:01:50 6 998 199 5 SW 0 87.6 644
09:04:50 6 998 193 7 SW 0 86.5 653
09:07:48 6 998 196 2 W 0 86.3 657
09:10:48 6 998 191 3 SW 0 86.5 667
09:13:50 6 998 196 2 NW 0 86.5 669
09:16:48 6 998 197 5 SO 0 85.9 659
09:19:46 6 998 190 3 S 0 85.5 662
09:22:48 6 998 192 5 NW 0 85 667
09:25:46 6 998 194 6 W 0 84.9 664
09:28:47 6 998 196 4 W 0 84.6 662
09:31:50 6 998 195 4 NW 0 84.3 664
09:34:47 6 998 199 2 NW 0 84.4 673
09:37:48 7 998 198 2 W 0 84.6 682
09:40:47 7 998 188 9 SW 0 84.5 700
09:43:47 7 998 183 4 NW 0 84.1 701
09:46:48 6 998 189 7 W 0 84.1 694
09:49:51 6 998 194 8 NW 0 83.8 682
09:52:48 6 998 191 8 W 0 83.7 676
09:55:50 6 998 193 6 NW 0 84.2 682
09:58:47 6 998 193 4 W 0 84 685
10:01:47 6 998 195 9 W 0 83.9 667
10:04:49 6 998 194 12 NW 0 84.3 620
10:07:47 7 998 195 1 O 0 84.3 633
10:10:49 7 998 200 5 NW 0 83.8 658
10:13:50 6 997 196 5 NW 0 83 662
10:16:49 6 998 197 6 NW 0 83 659
10:19:51 6 998 202 6 W 0 83.1 671
10:22:50 7 997 204 4 NW 0 83.1 676
10:25:48 7 998 208 4 NW 0 83.2 676
10:28:49 7 998 208 0 SW 0 83.5 665
10:31:48 7 998 210 3 NW 0 83 661
10:34:49 7 998 213 2 SW 0 82 662
10:37:47 7 998 214 2 SW 0 81.6 657
10:40:48 8 998 215 11 S 0 81.4 657
10:43:48 8 997 215 5 0 80.6 648
10:46:47 8 998 215 5 SW 0 79.4 659
10:49:51 8 997 217 11 NW 0 76.9 653
10:52:48 8 998 219 10 SW 0 76.8 664
10:55:48 8 997 218 4 S 0 76.7 663
10:58:48 8 997 217 4 NW 0 76.5 664
11:01:48 8 997 218 6 NW 0 77.1 670
11:04:46 8 997 221 5 W 0 77.3 673
11:07:47 9 997 221 1 NW 0 76.9 673
11:10:48 9 997 221 5 W 0 76.8 668
11:13:46 9 996 223 4 S 0 76.2 671
11:16:48 9 997 223 10 W 0 75.3 679
11:19:48 9 997 224 3 NW 0 74.8 680
11:22:49 10 997 222 4 W 0 73.1 671
11:25:47 10 997 223 5 SW 0 73.1 671
11:28:46 10 997 223 4 W 0 72.4 667
11:31:51 9 997 223 10 NW 0 71.6 668
11:34:46 9 996 223 5 SW 0 71.4 667
11:37:47 9 997 222 5 W 0 70.8 677
11:40:46 9 997 224 6 W 0 70.9 677
11:43:47 10 997 224 7 NW 0 71.5 683
11:46:46 10 997 225 6 W 0 71.9 685
11:49:50 10 998 227 2 SW 0 70.9 695
11:52:47 10 998 228 8 W 0 71.1 692
11:55:47 11 997 227 6 W 0 69.5 682
11:58:48 11 997 228 3 W 0 68.8 680
12:01:46 11 997 227 4 W 0 66.7 671
12:04:47 11 997 226 1 W 0 67.8 679
12:07:49 11 997 227 6 SW 0 65.1 682
12:10:48 11 997 227 6 W 0 64.9 691
12:13:47 11 997 227 2 W 0 65 691
12:16:48 11 997 228 8 SO 0 64.3 693
12:19:50 11 997 227 7 SW 0 63.3 688
12:22:48 11 997 228 9 SW 0 62.9 698
12:25:47 12 996 227 3 S 0 64.5 700
12:28:49 12 997 228 5 SW 0 62 705
12:31:51 12 996 227 5 W 0 62.7 700
12:34:50 12 996 228 7 SW 0 62.9 695
12:37:49 12 996 230 14 SW 0 61.3 689
12:40:50 13 996 224 14 W 0 60 692
12:43:47 12 996 227 3 O 0 59.7 700
12:46:46 12 995 225 1 O 0 59.6 715
12:49:47 12 996 226 5 N 0 61.5 726
12:52:47 12 996 227 5 W 0 61.5 718
12:55:50 12 996 226 15 W 0 60.8 718
12:58:48 12 996 226 3 S 0 60.5 726
13:01:49 12 996 229 14 SO 0 60.6 721
13:04:49 12 996 230 8 SW 0 60.7 726
13:07:52 13 996 226 3 NW 0 59.5 723
13:10:48 13 996 228 4 W 0 59.7 720
13:13:46 13 996 231 6 O 0 58.5 723
13:16:49 13 996 227 6 W 0 57.4 726
13:19:48 13 995 227 6 SW 0 58.2 708
13:22:49 13 996 229 7 SO 0 59.7 703
13:25:48 13 996 230 5 NW 0 59.9 700
13:28:49 13 995 229 7 NW 0 58 703
13:31:49 13 995 226 10 SW 0 57.2 700
13:34:47 13 995 230 6 S 0 59.9 705
13:37:48 13 996 230 4 SW 0 59.7 700
13:40:47 14 995 229 4 SW 0 58.7 697
13:43:50 14 996 231 9 SW 0 55.4 692
13:46:50 14 995 231 5 SW 0 54.6 697
13:49:48 14 995 231 18 W 0 53.3 702
13:52:47 14 995 233 3 W 0 53.6 704
13:55:48 14 995 232 8 W 0 55 700
13:58:48 13 995 233 1 SW 0 55.1 689
14:01:51 13 995 232 15 SW 0 55 679
14:04:49 14 995 236 6 SW 0 54.8 685
14:07:50 14 995 235 7 W 0 55 689
14:10:50 15 995 234 6 W 0 54.1 691
14:13:47 15 995 236 5 S 0 52.7 690
14:16:50 15 995 237 4 SW 0 51.8 694
14:19:47 15 995 235 1 NW 0 51.6 699
14:22:45 14 995 227 6 SW 0 49.9 705
14:25:47 14 995 231 14 W 0 51.3 711
14:28:48 14 995 236 12 W 0 52.2 706
14:31:47 14 995 234 3 SW 0 53.1 705
14:34:49 14 995 233 8 NO 0 51.6 706
14:37:48 14 995 229 7 NW 0 52 700
14:40:47 14 995 233 12 W 0 52.9 701
14:43:49 14 995 227 8 SW 0 52.4 703
14:46:49 13 995 242 8 SW 0 52.9 705
14:49:47 13 995 235 2 NW 0 54 700
14:52:47 14 995 242 15 W 0 53.3 699
14:55:48 14 995 243 6 W 0 52.9 695
14:58:48 15 995 233 8 NW 0 52.4 690
15:01:49 14 995 236 11 NW 0 51.3 692
15:04:46 14 995 243 2 N 0 50.7 691
15:07:48 14 995 231 2 S 0 53 699
15:10:48 13 995 235 3 S 0 53.2 708
15:13:49 14 994 244 7 SW 0 52.8 709
15:16:46 14 995 244 11 S 0 52.4 711
15:19:32 13 995 243 3 NW 0 43.7 705
15:22:47 14 995 244 6 NW 0 53.3 703
15:25:47 15 995 244 7 S 0 51.8 704
15:28:46 15 995 243 6 W 0 51.4 705
15:31:47 15 995 239 9 W 0 49.8 706
15:34:47 15 995 245 5 0 50.5 715
15:37:48 15 995 245 5 NW 0 50.8 713
15:40:50 16 995 245 8 SW 0 48.4 712
15:43:47 16 994 245 6 SW 0 47.4 711
15:46:50 16 995 245 3 SW 0 46.5 719
15:49:49 16 995 245 4 SW 0 46.4 733
15:52:48 16 994 245 16 NW 0 46.3 732
15:55:48 16 995 237 10 W 0 46.8 723
15:58:48 15 994 224 5 W 0 46.7 707
16:01:45 15 994 228 3 W 0 45.7 704
16:04:51 14 994 245 7 SW 0 48.8 707
16:07:48 14 994 246 2 SW 0 50.1 715
16:10:47 15 994 245 10 W 0 50.8 717
16:13:49 15 994 231 7 SW 0 47.6 718
16:16:47 15 994 243 4 SW 0 47 716
16:19:49 14 994 245 11 NW 0 47.9 723
16:22:48 14 994 246 11 W 0 48.8 715
16:25:46 14 994 238 3 W 0 49.3 706
16:28:47 14 994 246 7 O 0 49.3 698
16:31:48 14 994 246 9 0 49.4 697
16:34:49 15 994 246 14 SW 0 49.4 705
16:37:48 15 994 246 3 W 0 48.5 726
16:40:49 15 994 211 10 NW 0 46.9 713
16:43:48 15 993 205 3 SW 0 46.1 407
16:46:48 14 994 240 10 W 0 47.5 404
16:49:49 14 993 237 17 W 0 47.3 422
16:52:47 13 994 246 1 SW 0 47.7 475
16:55:51 14 994 245 10 SW 0 48.8 513
16:58:48 14 993 233 7 S 0 49.3 533
17:01:48 14 994 246 5 SW 0 49.1 536
17:04:47 14 994 246 2 W 0 49 562
17:07:48 14 994 246 3 N 0 48.1 559
17:10:47 14 993 246 13 SW 0 47 565
17:13:48 14 993 246 10 SW 0 46.3 571
17:16:45 15 992 246 1 S 0 46.8 573
17:19:47 15 994 246 10 SW 0 47 579
17:22:45 14 993 245 7 S 0 46.3 574
17:25:50 14 993 246 3 W 0 46.8 583
17:28:48 14 993 245 5 NW 0 46 582
17:31:49 14 993 245 9 SO 0 45.7 592
17:34:49 14 993 244 9 W 0 46.2 580
17:37:48 14 993 244 3 S 0 47 579
17:40:46 14 993 243 6 W 0 47.4 571
17:43:48 14 992 242 2 W 0 47.5 580
17:46:49 14 993 245 7 NW 0 47.7 586
17:49:49 14 992 244 9 NW 0 46.8 597
17:52:47 13 993 243 8 SW 0 48.3 591
17:55:47 13 992 245 6 SW 0 49 582
17:58:46 14 992 244 5 SW 0 48.7 574
18:01:48 14 993 243 4 W 0 48.2 588
18:04:48 13 992 244 6 W 0 47.6 595
18:07:48 13 992 243 8 W 0 48.3 594
18:10:49 13 992 242 3 SW 0 49.2 588
18:13:48 13 992 241 5 SW 0 50 589
18:16:46 13 992 239 5 W 0 49.7 591
18:19:50 12 992 237 5 SW 0 50.1 597
18:22:49 12 992 234 8 W 0 51 620
18:25:48 12 992 233 3 SW 0 51.3 635
18:28:52 12 991 227 4 NW 0 52.1 635
18:31:49 11 992 227 6 SW 0 52.6 624
18:34:48 11 992 227 5 W 0 53.6 623
18:37:47 11 992 228 1 NW 0 54.1 624
18:40:49 11 992 232 9 NW 0 54.7 621
18:43:47 11 992 228 1 W 0 55.1 615
18:46:49 11 991 232 1 O 0 55 619
18:49:48 11 992 227 11 W 0 54.9 618
18:52:47 11 993 219 6 SW 0 54.5 622
18:55:49 11 993 223 2 W 0 54.9 627
18:58:52 11 992 216 3 NW 0 55.5 632
19:01:46 10 992 209 3 W 0 55.8 632
19:04:48 10 992 207 5 W 0 56.9 639
19:07:50 10 991 204 5 SW 0 57.9 633
19:10:47 10 992 201 1 NO 0 58.6 633
19:13:49 9 992 198 2 SW 0 59.4 633
19:16:48 9 992 193 1 SW 0 60.2 642
19:19:48 9 992 188 2 S 0 60.9 645
19:22:51 9 992 182 3 NW 0 61.9 648
19:25:47 8 992 175 4 W 0 62.3 635
19:28:48 8 992 168 8 W 0 62.4 630
19:31:47 8 992 159 1 NW 0 62.7 627
19:34:48 8 992 148 6 NW 0 63.3 627
19:37:49 8 993 135 3 NW 0 63.6 621
19:40:48 8 993 121 5 W 0 64 627
19:43:46 8 993 105 3 W 0 64.2 627
19:46:47 7 993 28 5 NW 0 64.7 410
19:49:44 7 992 23 7 W 0 65.1 404
19:52:46 7 994 18 5 NW 0 66.1 407
19:55:47 7 992 51 9 W 0 66.6 405
19:58:48 7 992 37 2 NW 0 67.6 404
20:01:48 7 993 25 3 NW 0 67.8 405
20:04:47 7 992 16 3 N 0 68.3 405
20:07:49 7 993 10 2 NW 0 68.4 407
20:10:48 7 992 6 3 NW 0 68.3 407
20:13:46 7 992 4 4 W 0 68.8 404
20:16:48 7 992 0 1 NW 0 68.7 407
20:19:47 6 992 0 3 NW 0 69 407
20:22:48 6 992 0 2 W 0 70.3 403
20:25:46 6 993 0 3 NW 0 70.9 405
20:28:46 6 992 0 2 N 0 72.3 404
20:31:45 6 993 0 4 W 0 73.2 407
20:34:48 6 993 0 3 NW 0 72.9 401
20:37:46 6 992 0 1 W 0 72.3 404
20:40:47 6 993 0 4 NW 0 72.6 396
20:43:47 6 993 0 2 N 0 73.9 404
20:46:46 6 993 0 4 NO 0 74.1 404
20:49:45 6 993 0 2 NW 0 74.7 407
20:52:48 6 993 0 9 W 0 74.2 403
20:55:47 6 992 0 2 NW 0 74.5 406
20:58:47 6 992 0 1 N 0 74.8 404
21:01:47 6 992 0 2 W 0 75 405
21:04:48 6 993 0 4 NW 0 74.8 407
21:07:46 5 992 0 1 W 0 74.7 407
21:10:47 5 993 0 3 W 0 74.8 404
21:13:45 5 993 0 2 W 0 75.1 407
21:16:47 5 994 0 0 NW 0 74.8 407
21:19:46 5 993 0 2 W 0 74.7 422
21:22:46 4 992 0 2 W 0 75 430
21:25:48 4 992 0 1 NW 0 76.3 434
21:28:46 4 993 0 4 W 0 76.8 433
21:31:45 4 993 0 2 W 0 77.1 430
21:34:47 4 992 0 2 NW 0 77.2 440
21:37:45 4 992 0 0 W 0 77.6 442
21:40:49 4 993 0 2 W 0 78.6 449
21:43:47 4 993 0 2 W 0 78.8 452
21:46:47 4 994 0 1 NW 0 78.7 465
21:49:45 4 993 0 0 W 0 78.7 471
21:52:48 3 993 0 0 SW 0 78.9 486
21:55:49 3 992 0 0 SW 0 79.2 492
21:58:48 3 993 0 0 SW 0 79.4 493
22:01:47 3 992 0 0 SW 0 79.9 492
22:04:48 3 993 0 1 W 0 80.5 495
22:07:49 3 993 0 0 SW 0 80.7 495
22:10:47 3 992 0 0 SW 0 80.8 495
22:13:48 3 993 0 0 SW 0 81.4 498
22:16:47 3 994 0 1 S 0 81.8 495
22:19:46 3 993 0 0 SW 0 81.9 509
22:22:47 2 992 0 0 SW 0 81.7 506
22:25:47 2 992 0 0 SW 0 81.6 503
22:28:48 2 993 0 0 SW 0 81.5 507
22:31:47 2 992 0 0 SW 0 81.7 509
22:34:45 2 993 0 0 SW 0 81.8 510
22:37:48 2 993 0 0 SW 0 82.2 507
22:40:49 2 992 0 0 SW 0 83.2 513
22:43:47 2 992 0 0 SW 0 83.6 519
22:46:46 2 993 0 0 SW 0 83.8 522
22:49:48 2 993 0 0 SW 0 84.3 518
22:52:48 2 992 0 0 SW 0 84.7 521
22:55:46 2 992 0 0 SW 0 84.9 519
22:58:47 2 993 0 0 S 0 85.3 525
23:01:47 2 993 0 0 S 0 85.6 527
23:04:46 2 993 0 0 S 0 85.6 527
23:07:45 1 992 0 0 S 0 85.4 530
23:10:47 1 992 0 0 S 0 85.4 534
23:13:46 1 993 0 0 S 0 85.7 533
23:16:45 1 992 0 0 S 0 85.7 533
23:19:46 1 992 0 0 S 0 85.7 536
23:22:45 1 992 0 0 S 0 85.8 538
23:25:46 1 992 0 0 S 0 86.3 542
23:28:47 1 993 0 2 W 0 86.5 551
23:31:47 1 993 0 2 NW 0 87.1 550
23:34:45 1 992 0 0 N 0 88.9 553
23:37:46 2 992 0 1 N 0 89.8 543
23:40:45 2 992 0 1 N 0 89.7 545
23:43:49 2 992 0 3 NO 0 89.1 541
23:46:47 2 993 0 0 N 0 88.4 540
23:49:46 2 992 0 1 W 0 87.9 545
23:52:48 2 992 0 1 NW 0 87.5 548
23:55:47 2 992 0 1 NW 0 87.1 555
23:58:47 2 992 0 1 N 0 87.3 557

Letzte Änderung : 22-Jul-2022
Copyright Jens Köhler, Wolfsburg, Obere Dorfstraße 10d